Flag for United Kingdom Weather past 2 weeks in Bridlington, England, United Kingdom

Now
49 °F

Cool.


Feels Like: 45 °F
Forecast: 38 / 50 °F
Wind: 8 mph from Northeast

Location: Bridlington Mrsc

Current Time: Apr 26, 2015 at 2:19:48 PM

Latest Report: Apr 26, 2015 at 1:00 PM


Visibility: N/A

Pressure: 29.79 "Hg

Humidity: 70%

Dew point: 39 °F

Location of BridlingtonLocation

Historic Weather in Bridlington — Graph

°F

Bridlington temperature yesterday

Maximum temperature yesterday: 60 °F (at 1:00 PM)
Minimum temperature yesterday: 41 °F (at 7:00 PM)
Average temperature yesterday: 49 °F

Past Weeks' High & Low Weather Summary

 TemperatureHumidityPressure
High62 °F (Apr 14, 5:00 PM)100% (Apr 13, 7:00 AM)30.61 "Hg (Apr 13, 7:00 AM)
Low35 °F (Apr 13, 6:00 AM)35% (Apr 11, 2:00 PM)29.53 "Hg (Apr 25, 11:00 AM)
Average47 °F81%30.16 "Hg
* Reported Apr 11 1:00 PM — Apr 26 1:00 PM, Bridlington, Weather by CustomWeather, © 2015

Note: Actual official high and low records may vary slightly from our data, if they occured in-between our weather recording intervals... More about our weather records

Advertising

Bridlington weather history for previous 24 hours

 ConditionsComfort  
Time TempWeatherWind HumidityBarometerVisibility
1:00 PM
Sun, Apr 26
49 °FCool.8 mph70%29.79 "HgN/A
12:00 PM49 °FCool.9 mph66%29.80 "HgN/A
11:00 AM47 °FCool.10 mph71%29.80 "HgN/A
10:00 AM46 °FCool.13 mph70%29.79 "HgN/A
9:00 AM44 °FQuite cool.12 mph76%29.78 "HgN/A
8:00 AM42 °FQuite cool.10 mph75%29.78 "HgN/A
7:00 AM39 °FChilly.10 mph78%29.76 "HgN/A
6:00 AM37 °FChilly.10 mph83%29.75 "HgN/A
5:00 AM38 °FChilly.9 mph95%29.75 "HgN/A
3:00 AM38 °FChilly.9 mph98%29.75 "HgN/A
2:00 AM40 °FChilly.7 mph94%29.75 "HgN/A
1:00 AM41 °FQuite cool.7 mph93%29.75 "HgN/A
12:00 AM41 °FQuite cool.6 mph94%29.74 "HgN/A
11:00 PM
Sat, Apr 25
42 °FQuite cool.6 mph94%29.73 "HgN/A
10:00 PM41 °FQuite cool.5 mph93%29.73 "HgN/A
9:00 PM41 °FQuite cool.5 mph91%29.73 "HgN/A
8:00 PM41 °FQuite cool.2 mph90%29.70 "HgN/A
7:00 PM41 °FQuite cool.7 mph92%29.70 "HgN/A
6:00 PM41 °FQuite cool.14 mph96%29.67 "HgN/A
5:00 PM43 °FQuite cool.16 mph96%29.64 "HgN/A
4:00 PM44 °FQuite cool.21 mph99%29.61 "HgN/A
3:00 PM45 °FQuite cool.21 mph100%29.59 "HgN/A
2:00 PM51 °FCool.13 mph77%29.56 "HgN/A
Weather by CustomWeather, © 2015

See weather overviewHow to use our weather pages